Dinard-Pleurtuit-Saint-Malo Airport

Jump to: basic info | weather | frequencies | runways | comments

Related pages: nearby airports | nearby navaids | notams | map

Basic information (top)

Codes: DNR LFRD
Location: lon 48.587700, lat -2.079960, elev 219 ft / 67 m msl
Status: medium_airport
Scheduled airline service: yes
Links: Wikipedia Mobile

Weather (top)

Current conditions (rec'd 2014/11/27 23:30Z):

LFRD 272330Z AUTO 10010KT 9999 FEW012 BKN240 10/09 Q0995

Airport forecast (rec'd 2014/11/27 18:34Z):

TAF LFRD 271700Z 2718/2818 13010KT 9999 BKN010 
      BECMG 2718/2721 12015G25KT 
      TEMPO 2720/2804 BKN005 
      BECMG 2804/2806 SCT015

Frequencies (top)

Verify before use: may be inaccurate or out of date.

ATIS: 124.575 MHz (DINARD ATIS)
TWR: 120.15 MHz (DINARD TWR)

Runways (top)

12/30: 4,708 x 148 ft (1,435 x 45 m) — paved — not lighted — threshold 30 displaced 476 ft (145 m)

17/35: 7,218 x 148 ft (2,200 x 45 m) — paved — lighted

Latest comments (top)

No comments yet for Dinard-Pleurtuit-Saint-Malo Airport

More... (top)

See also NOTAMs and nearby airports and navaids, or visit the Dinard-Pleurtuit-Saint-Malo Airport page at the main OurAirports website..